Saint-Hubert, Quebec

2:12 AM EST on December 08, 2016 (GMT -0500)
Montreal / St-Hubert

Weather History for CYHU - January, 2014

Change the Weather History Date:

Friday, January 17, 2014

  Actual Average Record
Temperature  
Mean Temperature 28 °F -  
Max Temperature 33 °F 24 °F 37 °F (1999)
Min Temperature 23 °F 6 °F -14 °F (1997)
Degree Days  
Heating Degree Days 37    
Moisture  
Dew Point 26 °F    
Average Humidity 86    
Maximum Humidity 93    
Minimum Humidity 75    
Precipitation  
Precipitation 0.00 in 0.09 in - ()
Sea Level Pressure  
Sea Level Pressure 29.87 in    
Wind  
Wind Speed 6 mph ()    
Max Wind Speed 14 mph    
Max Gust Speed -    
Visibility 6.5 miles    
Events Rain , Snow    
Averages and records for this station are not official NWS values.
T = Trace of Precipitation, MM = Missing Value Source: Averaged Metar Reports

Daily Weather History Graph

Daily Weather History Graph

Search for Another Location

Airport or City:

Trip Planner

Search our weather history database for the weather conditions in past years. The results will help you decide how hot, cold, wet, or windy it might be!

Date:

Astronomy

Jan. 17, 2014 Rise Set
Actual Time 7:28 AM EST 4:39 PM EST
Civil Twilight 6:55 AM EST 5:12 PM EST
Nautical Twilight 6:19 AM EST 5:48 PM EST
Astronomical Twilight 5:43 AM EST 6:24 PM EST
Moon 6:30 PM EST (1/17) 7:48 AM EST (1/17)
Length of Visible Light 10h 16m
Length of Day
9h 10m
Full, 98% of the Moon is Illuminated
Jan 17
Full
Jan 24
Last Quarter
Jan 30
New
Feb 6
First Quarter
Feb 14
Full

Hourly Weather History & Observations

Time (EST) Temp. Windchill Dew Point Humidity Pressure Visibility Wind Dir Wind Speed Gust Speed Precip Events Conditions
12:00 AM 24.8 °F 20.5 °F 23.0 °F 93% 29.95 in 7.0 mi NW 3.5 mph - N/A   Overcast
12:43 AM 26.6 °F 21.2 °F 23.0 °F 86% 29.94 in 5.0 mi North 4.6 mph - N/A   Overcast
1:00 AM 26 °F - 23 °F 84% 29.93 in 5 mi North 4.6 mph - -   Mist
1:00 AM 26.6 °F 22.6 °F 23.0 °F 86% 29.93 in 5.0 mi NNE 3.5 mph - N/A   Overcast
2:00 AM 24.8 °F 19.1 °F 23.0 °F 93% 29.92 in 4.0 mi NNE 4.6 mph - N/A   Overcast
3:00 AM 24.8 °F 19.1 °F 23.0 °F 93% 29.91 in 4.0 mi North 4.6 mph - N/A   Overcast
4:00 AM 24.8 °F 20.5 °F 23.0 °F 93% 29.91 in 5.0 mi North 3.5 mph - N/A   Overcast
4:43 AM 24.8 °F 20.5 °F 23.0 °F 93% 29.92 in 5.0 mi NNW 3.5 mph - N/A Snow Light Snow
4:44 AM 24.8 °F 20.5 °F 23.0 °F 93% 29.92 in 5.0 mi NNW 3.5 mph - N/A Snow Light Snow
5:00 AM 24.8 °F 20.5 °F 23.0 °F 93% 29.92 in 5.0 mi North 3.5 mph - N/A Snow Light Snow
5:02 AM 24.8 °F 19.1 °F 23.0 °F 93% 29.92 in 5.0 mi North 4.6 mph - N/A   Overcast
5:14 AM 24.8 °F 20.5 °F 23.0 °F 93% 29.92 in 5.0 mi North 3.5 mph - N/A   Overcast
5:42 AM 24.8 °F 16.9 °F 21.2 °F 86% 29.91 in 5.0 mi NNE 6.9 mph - N/A Snow Light Snow
5:53 AM 24.8 °F 16.9 °F 23.0 °F 93% 29.90 in 5.0 mi NE 6.9 mph - N/A   Overcast
6:00 AM 24.8 °F 16.9 °F 21.2 °F 86% 29.90 in 4.0 mi NE 6.9 mph - N/A   Mostly Cloudy
7:00 AM 24 °F - 22 °F 88% 29.90 in 4 mi ESE 1.2 mph - -   Mist
7:00 AM 23.0 °F - 21.2 °F 93% 29.90 in 4.0 mi Calm Calm - N/A   Overcast
7:40 AM 24.8 °F - 23.0 °F 93% 29.90 in 3.0 mi SE 2.3 mph - N/A   Overcast
7:48 AM 24.8 °F 20.5 °F 23.0 °F 93% 29.91 in 3.0 mi SE 3.5 mph - N/A   Overcast
8:00 AM 24.8 °F 19.1 °F 23.0 °F 93% 29.91 in 3.0 mi ESE 4.6 mph - N/A   Overcast
8:12 AM 24.8 °F 19.1 °F 23.0 °F 93% 29.90 in 3.0 mi ESE 4.6 mph - N/A   Overcast
9:00 AM 26.6 °F 19.1 °F 24.8 °F 93% 29.90 in 3.0 mi ESE 6.9 mph - N/A   Overcast
10:00 AM 28.4 °F 22.2 °F 24.8 °F 86% 29.89 in 5.0 mi SSE 5.8 mph - N/A   Overcast
10:07 AM 28.4 °F 21.2 °F 24.8 °F 86% 29.89 in 6.0 mi SSE 6.9 mph - N/A   Overcast
10:36 AM 28.4 °F 20.4 °F 24.8 °F 86% 29.89 in 7.0 mi South 8.1 mph - N/A   Overcast
11:00 AM 30.2 °F 21.9 °F 24.8 °F 80% 29.87 in 9.0 mi SSE 9.2 mph - N/A   Mostly Cloudy
11:34 AM 30.2 °F 19.8 °F 24.8 °F 80% 29.86 in 9.0 mi South 13.8 mph - N/A   Overcast
12:00 PM 30.2 °F 20.2 °F 24.8 °F 80% 29.85 in 9.0 mi South 12.7 mph - N/A   Overcast
12:01 PM 30.2 °F 20.2 °F 24.8 °F 80% 29.85 in 9.0 mi South 12.7 mph - N/A Snow Light Snow
12:06 PM 30.2 °F 22.6 °F 26.6 °F 86% 29.85 in 5.0 mi SSW 8.1 mph - N/A Snow Light Snow
12:10 PM 30.2 °F 22.6 °F 26.6 °F 86% 29.85 in 2.5 mi SSW 8.1 mph - N/A Snow Light Snow
12:16 PM 30.2 °F 20.8 °F 26.6 °F 86% 29.84 in 1.8 mi SSW 11.5 mph - N/A Snow Light Snow
12:23 PM 30.2 °F 21.9 °F 26.6 °F 86% 29.84 in 1.8 mi SSW 9.2 mph - N/A Snow Light Snow
12:38 PM 30.2 °F 21.9 °F 26.6 °F 86% 29.84 in 2.0 mi SSW 9.2 mph - N/A Snow Light Snow
12:43 PM 30.2 °F 21.3 °F 26.6 °F 86% 29.84 in 3.0 mi SSW 10.4 mph - N/A Snow Light Snow
1:00 PM 30 °F - 27 °F 85% 29.83 in 5 mi South 9.2 mph - - Snow Light Snow
1:00 PM 30.2 °F 21.9 °F 26.6 °F 86% 29.83 in 5.0 mi SSW 9.2 mph - N/A Snow Light Snow
1:01 PM 30.2 °F 21.9 °F 26.6 °F 86% 29.83 in 6.0 mi SSW 9.2 mph - N/A Snow Light Snow
1:15 PM 30.2 °F 21.9 °F 26.6 °F 86% 29.83 in 9.0 mi South 9.2 mph - N/A   Overcast
1:18 PM 30.2 °F 21.3 °F 26.6 °F 86% 29.83 in 8.0 mi South 10.4 mph - N/A Snow Light Snow
1:22 PM 30.2 °F 21.3 °F 26.6 °F 86% 29.83 in 5.0 mi South 10.4 mph - N/A Snow Light Snow
1:29 PM 30.2 °F 21.3 °F 26.6 °F 86% 29.84 in 2.5 mi South 10.4 mph - N/A Snow Light Snow
1:45 PM 30.2 °F 22.6 °F 26.6 °F 86% 29.84 in 1.8 mi South 8.1 mph - N/A Snow Light Snow
1:50 PM 30.2 °F 21.9 °F 26.6 °F 86% 29.84 in 2.0 mi South 9.2 mph - N/A Snow Light Snow
1:56 PM 30.2 °F 23.4 °F 26.6 °F 86% 29.84 in 3.0 mi South 6.9 mph - N/A Snow Light Snow
1:57 PM 30.2 °F 23.4 °F 26.6 °F 86% 29.84 in 3.0 mi South 6.9 mph - N/A Snow Light Snow
2:00 PM 30.2 °F 23.4 °F 26.6 °F 86% 29.84 in 4.0 mi South 6.9 mph - N/A Snow Light Snow
2:09 PM 30.2 °F 23.4 °F 26.6 °F 86% 29.84 in 6.0 mi South 6.9 mph - N/A Snow Light Snow
2:36 PM 30.2 °F 24.3 °F 26.6 °F 86% 29.84 in 9.0 mi South 5.8 mph - N/A   Overcast
2:59 PM 30.2 °F 22.6 °F 26.6 °F 86% 29.85 in 6.0 mi South 8.1 mph - N/A Snow Light Snow
3:00 PM 30.2 °F 22.6 °F 26.6 °F 86% 29.85 in 6.0 mi South 8.1 mph - N/A Snow Light Snow
3:44 PM 32.0 °F 26.4 °F 26.6 °F 80% 29.85 in 5.0 mi South 5.8 mph - N/A Snow Light Snow
3:54 PM 32.0 °F 27.5 °F 26.6 °F 80% 29.85 in 6.0 mi South 4.6 mph - N/A Snow Light Snow
4:00 PM 32.0 °F 26.4 °F 26.6 °F 80% 29.85 in 7.0 mi South 5.8 mph - N/A Snow Light Snow
4:04 PM 32.0 °F 26.4 °F 26.6 °F 80% 29.86 in 4.0 mi South 5.8 mph - N/A Snow Light Snow
4:33 PM 32.0 °F 26.4 °F 28.4 °F 87% 29.86 in 6.0 mi South 5.8 mph - N/A Snow Light Snow
5:00 PM 32.0 °F 28.7 °F 28.4 °F 87% 29.86 in 9.0 mi SSW 3.5 mph - N/A Snow Light Snow
5:13 PM 32.0 °F 28.7 °F 28.4 °F 87% 29.86 in 9.0 mi South 3.5 mph - N/A   Overcast
5:20 PM 32.0 °F - 28.4 °F 87% 29.86 in 9.0 mi South 2.3 mph - N/A Snow Light Snow
6:00 PM 30.2 °F 24.3 °F 26.6 °F 86% 29.86 in 9.0 mi South 5.8 mph - N/A Snow Light Snow
6:03 PM 30.2 °F 25.4 °F 26.6 °F 86% 29.86 in 9.0 mi South 4.6 mph - N/A   Overcast
7:00 PM 32 °F - 28 °F 78% 29.86 in 10 mi South 6.9 mph - -   Overcast
7:00 PM 32.0 °F 25.6 °F 28.4 °F 87% 29.86 in 9.0 mi South 6.9 mph - N/A   Overcast
7:12 PM 32.0 °F 24.2 °F 28.4 °F 87% 29.86 in 9.0 mi South 9.2 mph - N/A Snow Light Snow
7:17 PM 32.0 °F 24.8 °F 26.6 °F 80% 29.86 in 9.0 mi South 8.1 mph - N/A Rain , Snow Light Snow
7:20 PM 32.0 °F 24.8 °F 28.4 °F 87% 29.86 in 9.0 mi South 8.1 mph - N/A Rain , Snow Light Snow
7:22 PM 32.0 °F 24.2 °F 28.4 °F 87% 29.86 in 9.0 mi South 9.2 mph - N/A Rain Light Rain
7:25 PM 32.0 °F 24.8 °F 28.4 °F 87% 29.86 in 9.0 mi South 8.1 mph - N/A   Overcast
7:29 PM 32.0 °F 24.8 °F 28.4 °F 87% 29.86 in 9.0 mi South 8.1 mph - N/A Snow Light Snow
7:34 PM 32.0 °F 24.8 °F 26.6 °F 80% 29.86 in 9.0 mi South 8.1 mph - N/A Snow Light Snow
7:47 PM 32.0 °F 24.8 °F 28.4 °F 87% 29.86 in 9.0 mi South 8.1 mph - N/A Snow Light Snow
7:52 PM 32.0 °F 24.8 °F 28.4 °F 87% 29.86 in 9.0 mi South 8.1 mph - N/A   Overcast
7:53 PM 32.0 °F 24.8 °F 28.4 °F 87% 29.86 in 9.0 mi South 8.1 mph - N/A Rain Light Rain
7:58 PM 32.0 °F 24.8 °F 28.4 °F 87% 29.86 in 9.0 mi South 8.1 mph - N/A Rain Light Rain
8:00 PM 32.0 °F 25.6 °F 28.4 °F 87% 29.86 in 9.0 mi South 6.9 mph - N/A Rain Light Rain
8:02 PM 32.0 °F 25.6 °F 28.4 °F 87% 29.86 in 9.0 mi South 6.9 mph - N/A   Overcast
8:37 PM 33.8 °F 26.4 °F 28.4 °F 81% 29.86 in 9.0 mi South 9.2 mph - N/A   Overcast
8:42 PM 32.0 °F 24.2 °F 28.4 °F 87% 29.86 in 9.0 mi South 9.2 mph - N/A Rain Light Rain
8:47 PM 32.0 °F 24.8 °F 28.4 °F 87% 29.86 in 9.0 mi South 8.1 mph - N/A Rain Light Rain
9:00 PM 32.0 °F 26.4 °F 28.4 °F 87% 29.85 in 9.0 mi South 5.8 mph - N/A Rain Light Rain
9:23 PM 32.0 °F 23.6 °F 28.4 °F 87% 29.85 in 9.0 mi South 10.4 mph - N/A Rain , Snow Light Snow
9:28 PM 32.0 °F 24.8 °F 28.4 °F 87% 29.85 in 9.0 mi South 8.1 mph - N/A Snow Light Snow
9:30 PM 32.0 °F 24.8 °F 28.4 °F 87% 29.85 in 9.0 mi South 8.1 mph - N/A Snow Light Snow
9:34 PM 32.0 °F 25.6 °F 28.4 °F 87% 29.85 in 9.0 mi South 6.9 mph - N/A Rain , Snow Light Snow
9:35 PM 32.0 °F 24.8 °F 28.4 °F 87% 29.85 in 9.0 mi South 8.1 mph - N/A Rain Light Rain
9:42 PM 32.0 °F 24.2 °F 28.4 °F 87% 29.85 in 9.0 mi South 9.2 mph - N/A   Overcast
9:48 PM 33.8 °F 26.4 °F 26.6 °F 75% 29.85 in 9.0 mi South 9.2 mph - N/A   Overcast
10:00 PM 32.0 °F 24.2 °F 26.6 °F 80% 29.85 in 9.0 mi South 9.2 mph - N/A   Overcast
11:00 PM 32.0 °F 22.5 °F 24.8 °F 75% 29.85 in 9.0 mi SSW 12.7 mph - N/A   Scattered Clouds